Location: Koussan�
(15.2012°N, 12.5548°W)
Time: 00:56:41
(UTC+00:00)

Hubble Space Telescope - Pass Details

Date: 20 October 2020
Orbit: 536 x 540 km, 28.5° (Epoch: 25 November)

Event Time Altitude Azimuth Distance (km) Brightness Sun altitude
Rises 18:51:01 0° 304° (NW) 2,666 5.1 -6.6°
Reaches altitude 10° 18:54:31 10° 335° (NNW) 1,777 3.6 -7.5°
Maximum altitude 18:56:16 12° 0° (N) 1,632 3.1 -7.9°
Drops below altitude 10° 18:58:01 10° 26° (NNE) 1,778 3.1 -8.3°
Enters shadow 18:59:41 - 44° (NE) 2,137 3.3 -8.7°
